Weather History for Berlin, NH

Change the Weather History Date:

Tuesday, February 12, 2013

  Actual Average Record
Temperature  
Mean Temperature 33 °F -  
Max Temperature 36 °F 26 °F 48 °F (1999)
Min Temperature 30 °F 0 °F -24 °F (2001)
Degree Days  
Heating Degree Days 32    
Moisture  
Dew Point 27 °F    
Average Humidity 76    
Maximum Humidity 93    
Minimum Humidity 70    
Precipitation  
Precipitation 0.02 in - - ()
Sea Level Pressure  
Sea Level Pressure 29.59 in    
Wind  
Wind Speed 4 mph (West)    
Max Wind Speed 10 mph    
Max Gust Speed 22 mph    
Visibility 8 miles    
Events Snow    
Averages and records for this station are not official NWS values.
T = Trace of Precipitation, MM = Missing Value Source: NWS Daily Summary

Daily Weather History Graph

Daily Weather History Graph

Search for Another Location

Airport:

Trip Planner

Search our weather history database for the weather conditions in past years. The results will help you decide how hot, cold, wet, or windy it might be!

Date:

Astronomy

Feb. 12, 2013 Rise Set
Actual Time 6:48 AM EST 5:09 PM EST
Civil Twilight 6:18 AM EST 5:39 PM EST
Nautical Twilight 5:44 AM EST 6:13 PM EST
Astronomical Twilight 5:10 AM EST 6:47 PM EST
Moon 7:36 AM EST (2/12) 8:16 PM EST (2/12)
Length of Visible Light 11h 20m
Length of Day
10h 20m
Waxing Crescent, 7% of the Moon is Illuminated
Feb 12
Waxing Crescent
Feb 17
First Quarter
Feb 25
Full
Mar 4
Last Quarter
Mar 11
New

Hourly Weather History & Observations

Time (EST) Temp. Windchill Dew Point Humidity Pressure Visibility Wind Dir Wind Speed Gust Speed Precip Events Conditions
12:04 AM 30.2 °F 26.7 °F 28.4 °F 93% 29.52 in 4.0 mi SSW 3.5 mph - 0.00 in Snow Light Snow
12:18 AM 30.2 °F 26.7 °F 28.4 °F 93% 29.52 in 6.0 mi South 3.5 mph - 0.00 in Snow Light Snow
12:52 AM 32.0 °F - 28.9 °F 88% 29.57 in 4.0 mi Calm Calm - 0.00 in Snow Light Snow
1:26 AM 33.8 °F - 30.2 °F 87% 29.53 in 10.0 mi Calm Calm - 0.00 in   Overcast
1:52 AM 35.1 °F - 28.9 °F 78% 29.56 in 10.0 mi Calm Calm - 0.00 in   Overcast
2:52 AM 34.0 °F - 28.0 °F 79% 29.55 in 10.0 mi Calm Calm - N/A   Scattered Clouds
3:45 AM 33.8 °F 30.8 °F 26.6 °F 75% 29.51 in 10.0 mi WNW 3.5 mph - N/A   Overcast
3:52 AM 34.0 °F 31.0 °F 27.0 °F 75% 29.55 in 10.0 mi Variable 3.5 mph - N/A   Overcast
4:35 AM 33.8 °F 28.6 °F 26.6 °F 75% 29.51 in 10.0 mi WNW 5.8 mph - N/A   Overcast
4:52 AM 33.1 °F 28.7 °F 25.0 °F 72% 29.54 in 10.0 mi Variable 4.6 mph - N/A   Scattered Clouds
5:52 AM 33.1 °F 28.7 °F 25.0 °F 72% 29.53 in 10.0 mi Variable 4.6 mph - N/A   Overcast
6:52 AM 34.0 °F 29.8 °F 26.1 °F 73% 29.54 in 10.0 mi Variable 4.6 mph - N/A   Overcast
7:14 AM 33.8 °F 27.7 °F 26.6 °F 75% 29.50 in 10.0 mi Variable 6.9 mph - N/A   Overcast
7:52 AM 34.0 °F 28.0 °F 27.0 °F 75% 29.55 in 5.0 mi West 6.9 mph 17.3 mph 0.00 in Snow Light Snow
8:02 AM 33.8 °F 27.0 °F 26.6 °F 75% 29.51 in 7.0 mi West 8.1 mph - 0.00 in Snow Light Snow
8:41 AM 35.6 °F 29.9 °F 26.6 °F 70% 29.51 in 10.0 mi WSW 6.9 mph - 0.00 in   Overcast
8:52 AM 35.1 °F 29.3 °F 27.0 °F 72% 29.55 in 10.0 mi WSW 6.9 mph - 0.00 in   Overcast
9:05 AM 35.6 °F 30.7 °F 26.6 °F 70% 29.51 in 10.0 mi West 5.8 mph - N/A   Overcast
9:52 AM 35.1 °F - 27.0 °F 72% 29.57 in 5.0 mi Calm Calm - 0.00 in Snow Light Snow
10:52 AM 36.0 °F 28.5 °F 27.0 °F 70% 29.57 in 9.0 mi West 10.4 mph 21.9 mph 0.00 in   Overcast
11:52 AM 36.0 °F 30.3 °F 28.0 °F 73% 29.57 in 10.0 mi WNW 6.9 mph - 0.00 in   Overcast
12:01 PM 35.6 °F 29.9 °F 28.4 °F 75% 29.54 in 5.0 mi Variable 6.9 mph 16.1 mph 0.00 in Snow Light Snow
12:08 PM 35.6 °F 31.7 °F 28.4 °F 75% 29.54 in 7.0 mi Variable 4.6 mph - 0.00 in Snow Light Snow
12:52 PM 36.0 °F 32.1 °F 28.0 °F 73% 29.59 in 9.0 mi Variable 4.6 mph - 0.01 in Snow Light Snow
1:24 PM 35.6 °F - 28.4 °F 75% 29.56 in 2.0 mi Calm Calm - 0.00 in Snow Light Snow
1:39 PM 35.6 °F 29.9 °F 28.4 °F 75% 29.57 in 1.8 mi Variable 6.9 mph - 0.00 in Snow Light Snow
1:43 PM 35.6 °F 30.7 °F 28.4 °F 75% 29.57 in 3.0 mi WSW 5.8 mph - 0.00 in Snow Light Snow
1:52 PM 35.1 °F 30.1 °F 28.9 °F 78% 29.61 in 3.0 mi Variable 5.8 mph - 0.00 in Snow Light Snow
2:52 PM 35.1 °F 31.0 °F 27.0 °F 72% 29.63 in 10.0 mi Variable 4.6 mph - 0.00 in   Overcast
3:52 PM 35.1 °F 32.2 °F 27.0 °F 72% 29.65 in 10.0 mi Variable 3.5 mph 17.3 mph N/A   Overcast
4:52 PM 35.1 °F 32.2 °F 27.0 °F 72% 29.66 in 5.0 mi Variable 3.5 mph - 0.00 in Snow Light Snow
5:52 PM 34.0 °F - 26.1 °F 73% 29.69 in 8.0 mi Calm Calm - 0.01 in Snow Light Snow
6:52 PM 34.0 °F 28.0 °F 26.1 °F 73% 29.71 in 10.0 mi NW 6.9 mph - 0.00 in   Overcast
7:52 PM 33.1 °F 28.7 °F 27.0 °F 78% 29.72 in 10.0 mi Variable 4.6 mph - N/A   Overcast
8:52 PM 33.1 °F 26.1 °F 26.1 °F 75% 29.73 in 10.0 mi West 8.1 mph - N/A   Overcast
9:52 PM 33.1 °F - 25.0 °F 72% 29.76 in 10.0 mi Calm Calm - N/A   Overcast
10:52 PM 32.0 °F - 24.1 °F 73% 29.78 in 9.0 mi Calm Calm - 0.00 in   Overcast
11:52 PM 30.9 °F 26.2 °F 23.0 °F 72% 29.77 in 8.0 mi Variable 4.6 mph - 0.00 in Snow Light Snow